• în Republica Moldova
  • Lista ţărilor
  • Pe 7 zile
  • Temperatura apei
  • Hartă satelitară
  • Meteo pe hartă
  • Widget-uri
  • user-avatar
    Intrare

    Meteo pe oră la Gluchowo

    Astăzi, 21 Octombrie, Duminică

    Timp Temperatura Precipitaţii Vânt Presiune Umiditate
    00:00 +8°C° 0.1 mm 2 m/s 753 mmHg 76%
    01:00 +7°C° 0.1 mm 2 m/s 753 mmHg 77%
    02:00 +7°C° 0.1 mm 2 m/s 753 mmHg 77%
    03:00 +7°C° 0 mm 2 m/s 753 mmHg 78%
    04:00 +6°C° 0 mm 2 m/s 753 mmHg 79%
    05:00 +6°C° 0 mm 2 m/s 753 mmHg 81%
    06:00 +6°C° 0 mm 2 m/s 754 mmHg 81%
    07:00 +5°C° 0 mm 2 m/s 754 mmHg 82%
    08:00 +5°C° 0 mm 2 m/s 755 mmHg 82%
    09:00 +7°C° 0 mm 2 m/s 755 mmHg 75%
    10:00 +8°C° 0 mm 2 m/s 755 mmHg 69%
    11:00 +10°C° 0 mm 2 m/s 755 mmHg 62%
    12:00 +12°C° 0 mm 2 m/s 755 mmHg 59%
    13:00 +12°C° 0 mm 2 m/s 755 mmHg 56%
    14:00 +13°C° 0 mm 2 m/s 755 mmHg 54%
    15:00 +12°C° 0 mm 2 m/s 755 mmHg 57%
    16:00 +12°C° 0 mm 2 m/s 755 mmHg 60%
    17:00 +11°C° 0 mm 1 m/s 755 mmHg 64%
    18:00 +10°C° 0 mm 1 m/s 755 mmHg 67%
    19:00 +9°C° 0 mm 1 m/s 756 mmHg 70%
    20:00 +8°C° 0 mm 1 m/s 756 mmHg 74%
    21:00 +8°C° 0 mm 1 m/s 756 mmHg 75%
    22:00 +6°C° 0 mm 0 m/s 756 mmHg 77%
    23:00 +6°C° 0 mm 0 m/s 756 mmHg 79%

    Mâine, 22 Octombrie, Luni

    Timp Temperatura Precipitaţii Vânt Presiune Umiditate
    00:00 +6°C° 0 mm 0 m/s 756 mmHg 80%
    01:00 +6°C° 0 mm 0 m/s 756 mmHg 81%
    02:00 +6°C° 0 mm 1 m/s 756 mmHg 83%
    03:00 +6°C° 0 mm 1 m/s 755 mmHg 84%
    04:00 +6°C° 0 mm 1 m/s 755 mmHg 85%
    05:00 +5°C° 0 mm 1 m/s 755 mmHg 86%
    06:00 +6°C° 0 mm 1 m/s 755 mmHg 86%
    07:00 +6°C° 0 mm 1 m/s 755 mmHg 86%
    08:00 +6°C° 0 mm 1 m/s 755 mmHg 86%
    09:00 +7°C° 0 mm 1 m/s 755 mmHg 78%
    10:00 +8°C° 0 mm 2 m/s 755 mmHg 71%
    11:00 +10°C° 0 mm 2 m/s 755 mmHg 63%
    12:00 +12°C° 0 mm 2 m/s 754 mmHg 60%
    13:00 +11°C° 0 mm 3 m/s 753 mmHg 57%
    14:00 +12°C° 0 mm 3 m/s 753 mmHg 54%
    15:00 +11°C° 0 mm 3 m/s 752 mmHg 58%
    16:00 +10°C° 0 mm 3 m/s 752 mmHg 61%
    17:00 +10°C° 0 mm 2 m/s 751 mmHg 65%
    18:00 +9°C° 0 mm 3 m/s 751 mmHg 67%
    19:00 +8°C° 0 mm 3 m/s 751 mmHg 69%
    20:00 +8°C° 0 mm 3 m/s 751 mmHg 72%
    21:00 +8°C° 0.3 mm 3 m/s 751 mmHg 75%
    22:00 +7°C° 0.3 mm 4 m/s 751 mmHg 78%
    23:00 +7°C° 0.3 mm 4 m/s 751 mmHg 82%

    Poimâine, 23 Octombrie, Marţi

    Timp Temperatura Precipitaţii Vânt Presiune Umiditate
    00:00 +7°C° 0.3 mm 4 m/s 751 mmHg 82%
    01:00 +7°C° 0.3 mm 4 m/s 751 mmHg 83%
    02:00 +7°C° 0.3 mm 4 m/s 750 mmHg 83%
    03:00 +6°C° 0 mm 4 m/s 750 mmHg 85%
    04:00 +5°C° 0 mm 4 m/s 750 mmHg 87%
    05:00 +4°C° 0 mm 4 m/s 750 mmHg 88%
    06:00 +4°C° 0 mm 4 m/s 750 mmHg 88%
    07:00 +3°C° 0 mm 4 m/s 750 mmHg 87%
    08:00 +3°C° 0 mm 4 m/s 750 mmHg 87%
    09:00 +4°C° 0 mm 4 m/s 749 mmHg 81%
    10:00 +6°C° 0 mm 5 m/s 749 mmHg 74%
    11:00 +7°C° 0 mm 5 m/s 748 mmHg 68%
    12:00 +7°C° 0.1 mm 6 m/s 747 mmHg 66%
    13:00 +6°C° 0.1 mm 7 m/s 746 mmHg 65%
    14:00 +6°C° 0.1 mm 8 m/s 745 mmHg 63%
    15:00 +6°C° 0.2 mm 8 m/s 743 mmHg 66%
    16:00 +5°C° 0.2 mm 8 m/s 742 mmHg 69%
    17:00 +5°C° 0.2 mm 9 m/s 741 mmHg 72%
    18:00 +5°C° 0.9 mm 9 m/s 739 mmHg 74%
    19:00 +5°C° 0.9 mm 10 m/s 737 mmHg 77%
    20:00 +3°C° 0.9 mm 10 m/s 736 mmHg 79%
    21:00 +5°C° 1.5 mm 10 m/s 734 mmHg 81%
    22:00 +5°C° 1.5 mm 10 m/s 732 mmHg 82%
    23:00 +6°C° 1.5 mm 10 m/s 731 mmHg 84%

    24 Octombrie, Miercuri

    Timp Temperatura Precipitaţii Vânt Presiune Umiditate
    00:00 +6°C° 0.6 mm 10 m/s 730 mmHg 81%
    01:00 +6°C° 0.6 mm 9 m/s 729 mmHg 79%
    02:00 +6°C° 0.6 mm 9 m/s 728 mmHg 76%
    03:00 +6°C° 0.8 mm 9 m/s 729 mmHg 77%
    04:00 +6°C° 0.8 mm 9 m/s 729 mmHg 77%
    05:00 +5°C° 0.8 mm 9 m/s 729 mmHg 78%
    06:00 +5°C° 0.7 mm 9 m/s 730 mmHg 75%
    07:00 +3°C° 0.7 mm 9 m/s 731 mmHg 73%
    08:00 +2°C° 0.7 mm 9 m/s 731 mmHg 70%
    09:00 +2°C° 0.1 mm 9 m/s 732 mmHg 66%
    10:00 +3°C° 0.1 mm 10 m/s 732 mmHg 62%
    11:00 +3°C° 0.1 mm 10 m/s 733 mmHg 58%
    12:00 +3°C° 0.1 mm 10 m/s 733 mmHg 59%
    13:00 +3°C° 0.1 mm 10 m/s 733 mmHg 60%
    14:00 +3°C° 0.1 mm 10 m/s 733 mmHg 62%
    15:00 +3°C° 0.1 mm 10 m/s 733 mmHg 61%
    16:00 +3°C° 0.1 mm 10 m/s 733 mmHg 60%
    17:00 +3°C° 0.1 mm 11 m/s 733 mmHg 60%
    18:00 +3°C° 0.1 mm 11 m/s 734 mmHg 62%
    19:00 +3°C° 0.1 mm 11 m/s 734 mmHg 63%
    20:00 +3°C° 0.1 mm 12 m/s 734 mmHg 65%
    21:00 +3°C° 0.3 mm 11 m/s 734 mmHg 66%
    22:00 +3°C° 0.3 mm 11 m/s 735 mmHg 67%
    23:00 +3°C° 0.3 mm 11 m/s 735 mmHg 68%

    25 Octombrie, Joi

    Timp Temperatura Precipitaţii Vânt Presiune Umiditate
    00:00 +3°C° 0.1 mm 11 m/s 736 mmHg 69%
    01:00 +3°C° 0.1 mm 10 m/s 736 mmHg 70%
    02:00 +3°C° 0.1 mm 9 m/s 737 mmHg 71%
    03:00 +2°C° 0 mm 9 m/s 737 mmHg 72%
    04:00 +2°C° 0 mm 8 m/s 738 mmHg 72%
    05:00 +2°C° 0 mm 8 m/s 738 mmHg 72%
    06:00 +2°C° 0 mm 8 m/s 738 mmHg 74%
    07:00 +2°C° 0 mm 7 m/s 739 mmHg 75%
    08:00 +2°C° 0 mm 7 m/s 739 mmHg 76%
    09:00 +2°C° 0 mm 7 m/s 739 mmHg 72%
    10:00 +3°C° 0 mm 7 m/s 739 mmHg 68%
    11:00 +4°C° 0 mm 6 m/s 739 mmHg 63%
    12:00 +4°C° 0.1 mm 6 m/s 738 mmHg 63%
    13:00 +4°C° 0.1 mm 6 m/s 738 mmHg 64%
    14:00 +4°C° 0.1 mm 6 m/s 738 mmHg 64%
    15:00 +5°C° 0.2 mm 5 m/s 738 mmHg 70%
    16:00 +5°C° 0.2 mm 4 m/s 737 mmHg 77%
    17:00 +4°C° 0.2 mm 3 m/s 737 mmHg 83%
    18:00 +4°C° 0.1 mm 3 m/s 737 mmHg 86%
    19:00 +5°C° 0.1 mm 3 m/s 738 mmHg 88%
    20:00 +5°C° 0.1 mm 3 m/s 738 mmHg 91%
    21:00 +5°C° 0.1 mm 3 m/s 738 mmHg 92%
    22:00 +5°C° 0.1 mm 3 m/s 738 mmHg 93%
    23:00 +5°C° 0.1 mm 4 m/s 738 mmHg 94%

    26 Octombrie, Vineri

    Timp Temperatura Precipitaţii Vânt Presiune Umiditate
    00:00 +5°C° 0 mm 4 m/s 739 mmHg 93%
    01:00 +5°C° 0 mm 4 m/s 739 mmHg 93%
    02:00 +5°C° 0 mm 4 m/s 739 mmHg 92%
    03:00 +5°C° 0 mm 4 m/s 739 mmHg 92%
    04:00 +5°C° 0 mm 4 m/s 739 mmHg 92%
    05:00 +5°C° 0 mm 4 m/s 739 mmHg 92%
    06:00 +5°C° 0.1 mm 4 m/s 739 mmHg 92%
    07:00 +6°C° 0.1 mm 4 m/s 739 mmHg 92%
    08:00 +6°C° 0.1 mm 4 m/s 739 mmHg 91%
    09:00 +7°C° 0.4 mm 4 m/s 739 mmHg 91%
    10:00 +8°C° 0.4 mm 5 m/s 739 mmHg 90%
    11:00 +8°C° 0.4 mm 5 m/s 740 mmHg 90%
    12:00 +9°C° 0.2 mm 5 m/s 739 mmHg 88%
    13:00 +9°C° 0.2 mm 6 m/s 739 mmHg 85%
    14:00 +9°C° 0.2 mm 6 m/s 739 mmHg 83%
    15:00 +9°C° 0 mm 5 m/s 739 mmHg 83%
    16:00 +9°C° 0 mm 5 m/s 739 mmHg 83%
    17:00 +8°C° 0 mm 5 m/s 739 mmHg 84%
    18:00 +8°C° 0 mm 4 m/s 739 mmHg 82%
    19:00 +8°C° 0 mm 4 m/s 739 mmHg 80%
    20:00 +8°C° 0 mm 4 m/s 739 mmHg 78%
    21:00 +8°C° 0.1 mm 4 m/s 739 mmHg 80%
    22:00 +7°C° 0.1 mm 4 m/s 739 mmHg 81%
    23:00 +7°C° 0.1 mm 4 m/s 738 mmHg 83%
    Arată mai mult